OBJECT D

基本信息
目录编号:
57315
目录名称:
OBJECT D
国际标识:
1998-067VT
轨道中心:
EARTH
物体状态:
已陨落(2024-01-30)
发射日期:
1998-11-20 UTC
国别:
(TBD)
轨道信息
数据来源: 国际轨道数据
星历时间: 2024-01-04T23:09:06+0800
半长轴: 6563.815km
偏心率: 0.0002386
轨道倾角: 51.615°
近地点辐角: 38.448°
升交点赤经: 28.201°
平近点角: 321.671°
近地点: 184.113km
远地点: 187.247km
周期: 88.205分钟
每日圈数: 16.325569
详细信息
发射场:
TTMTR
轨道高度:
LEO
数据来源:
AOE Integration Group
参考系:
TEME
时间系统:
UTC
历元类型:
SGP4
2D轨道图
3D轨道图
轨道高度分析图
轨道倾角分析图
轨道综合分析图
查看轨道综合分析图